Location: Kapuskasing
(49.3803°N, 82.4001°W)
Time: 11:19:48
(UTC-04:00)

RS-44 - Pass Details

Date: 22 March 2026
Orbit: 1175 x 1510 km, 82.5° (Epoch: 11 April)

Event Time Altitude Azimuth Distance (km) Brightness Sun altitude
Rises 01:52:09 0° 351° (N) 4,445 ? -39.9°
Reaches altitude 10° 01:55:16 10° 0° (N) 3,512 ? -39.8°
Maximum altitude 02:02:59 37° 66° (ENE) 2,146 ? -39.6°
Enters shadow 02:04:32 35° 87° (E) 2,231 ? -39.6°
